TimeCST,TemperatureF,Dew PointF,Humidity,Sea Level PressureIn,VisibilityMPH,Wind Direction,Wind SpeedMPH,Gust SpeedMPH,PrecipitationIn,Events,Conditions,WindDirDegrees,DateUTC
12:55 AM,48.4,41.5,77,29.89,10.0,SSE,12.7,19.6,N/A,,Clear,150,2011-11-06 05:55:00
1:55 AM,47.8,41.4,78,29.87,10.0,South,16.1,21.9,N/A,,Clear,170,2011-11-06 06:55:00
1:55 AM,47.8,41.2,78,29.87,10.0,South,12.7,-,N/A,,Clear,180,2011-11-06 07:55:00
2:55 AM,47.7,41.5,79,29.86,10.0,South,11.5,-,N/A,,Clear,180,2011-11-06 08:55:00
3:55 AM,46.4,42.3,85,29.86,10.0,South,9.2,-,N/A,,Clear,170,2011-11-06 09:55:00
4:55 AM,45.9,43.2,90,29.84,10.0,SSE,11.5,-,N/A,,Clear,160,2011-11-06 10:55:00
5:55 AM,46.0,43.9,92,29.82,10.0,SE,10.4,-,N/A,,Partly Cloudy,140,2011-11-06 11:55:00
6:55 AM,46.9,44.6,92,29.82,10.0,SSE,10.4,-,N/A,,Clear,160,2011-11-06 12:55:00
7:55 AM,49.3,45.7,87,29.82,10.0,SSE,16.1,-,N/A,,Clear,160,2011-11-06 13:55:00
8:37 AM,50.0,46.4,87,29.82,10.0,SSE,9.2,-,N/A,,Mostly Cloudy,160,2011-11-06 14:37:00
8:55 AM,51.1,46.2,83,29.81,10.0,SSE,13.8,-,N/A,,Mostly Cloudy,160,2011-11-06 14:55:00
9:55 AM,53.6,46.4,77,29.82,7.0,South,16.1,19.6,N/A,,Overcast,170,2011-11-06 15:55:00
10:55 AM,55.4,48.2,77,29.81,7.0,South,9.2,20.7,N/A,,Overcast,190,2011-11-06 16:55:00
11:55 AM,55.4,48.2,77,29.80,10.0,SSW,13.8,24.2,N/A,,Overcast,200,2011-11-06 17:55:00
12:55 PM,57.2,48.2,72,29.79,10.0,SSW,17.3,27.6,N/A,,Overcast,200,2011-11-06 18:55:00
1:40 PM,57.2,48.2,72,29.78,10.0,SSW,15.0,20.7,N/A,,Mostly Cloudy,210,2011-11-06 19:40:00
1:55 PM,57.2,48.2,72,29.88,10.0,SSW,11.5,20.7,N/A,,Mostly Cloudy,200,2011-11-06 19:55:00
2:55 PM,59.0,46.4,63,29.80,10.0,SSW,12.7,27.6,N/A,,Mostly Cloudy,210,2011-11-06 20:55:00
3:55 PM,59.0,46.4,63,29.83,10.0,SSW,13.8,24.2,N/A,,Mostly Cloudy,210,2011-11-06 21:55:00
4:55 PM,55.4,44.6,67,29.85,10.0,WSW,15.0,20.7,N/A,,Partly Cloudy,240,2011-11-06 22:55:00
5:55 PM,52.7,36.9,55,29.91,10.0,SW,16.1,23.0,N/A,,Clear,230,2011-11-06 23:55:00
6:55 PM,50.5,36.3,58,29.95,10.0,WSW,13.8,-,N/A,,Clear,250,2011-11-07 00:55:00
7:55 PM,48.6,35.8,61,29.97,10.0,WSW,15.0,-,N/A,,Clear,250,2011-11-07 01:55:00
8:55 PM,47.7,34.7,61,29.99,10.0,WSW,12.7,23.0,N/A,,Clear,240,2011-11-07 02:55:00
9:55 PM,45.9,33.8,63,30.02,10.0,WSW,10.4,-,N/A,,Clear,250,2011-11-07 03:55:00
10:55 PM,43.7,32.2,64,30.04,10.0,WSW,10.4,-,N/A,,Clear,240,2011-11-07 04:55:00